Regional Weather Roundup
Issued by NWS

Home | Current Version | Previous Version | Graphics & Text | Print | Product List | Glossary Off
Versions: 1 2 3 4 5 6 7 8 9 10 11 12 13 14 15 16 17 18 19 20 21 22 23 24 25 26 27 28 29 30 31 32 33 34 35 36 37 38 39 40 41 42 43 44 45 46 47 48 49 50

720
ASUS43 KMKX 251300
RWRWI

WISCONSIN REGIONAL WEATHER ROUNDUP
NATIONAL WEATHER SERVICE MILWAUKEE/SULLIVAN WI
700 AM CST SAT FEB 25 2017

NOTE: "FAIR" INDICATES FEW OR NO CLOUDS BELOW 12,000 FEET WITH NO
SIGNIFICANT WEATHER AND/OR OBSTRUCTIONS TO VISIBILITY.

WIZ001-002-006>008-014>016-023>028-251400-
NORTHWEST WISCONSIN

CITY           SKY/WX    TMP DP  RH WIND       PRES   REMARKS
SUPERIOR ARPT  PTCLDY     9   3  78 NW5       29.88R WCI   0
ASHLAND        CLOUDY    14   7  73 W12G21    29.80R WCI   0
HAYWARD        CLOUDY    11   3  70 NW8G17    29.80R WCI  -1
SIREN          CLEAR     11   3  69 NW14G21   29.87R WCI  -5
CUMBERLAND     PTCLDY    10   3  72 NW16G23   29.81S WCI  -7
RICE LAKE      PTCLDY    11   4  73 NW3       29.84R
CHETEK         PTCLDY    10   3  72 MISG      29.82R
LADYSMITH      CLOUDY    13   5  71 NW15G28   29.78R WCI  -3
EAU CLAIRE     NOT AVBL
MENOMONIE      CLEAR     12   4  68 W14       29.85R WCI  -3
NEW RICHMOND   CLEAR     13   4  66 NW14      29.88R WCI  -2
OSCEOLA        CLEAR     14   5  69 NW14      29.92S WCI  -1
$$

WIZ003>005-009-010-017-018-251400-
NORTH CENTRAL WISCONSIN

CITY           SKY/WX    TMP DP  RH WIND       PRES   REMARKS
MANITOWISH WTR LGT SNOW  13  11  91 NW13      29.63S WCI  -2
ARBOR VITAE    LGT SNOW  17  12  83 NW9G18      N/A  WCI   5
WOODRUFF       LGT SNOW  17  12  83 NW9G18      N/A  WCI   5
RHINELANDER    LGT SNOW  14   9  80 NW13G18   29.62R WCI   0
EAGLE RIVER    LGT SNOW  14   9  79 NW13G20   29.59S WCI   0
LAND O LAKES   LGT SNOW  14  10  84 NW10G20   29.60R WCI   2
PHILLIPS       CLOUDY    10   6  82 W8        29.69S WCI  -2
TOMAHAWK       LGT SNOW  12   8  83 W10       29.67R WCI  -2
MEDFORD        LGT SNOW  11   4  72 NW15G29   29.69R WCI  -5
MERRILL        NOT AVBL
$$

WIZ029-030-035-036-043>047-251400-
CENTRAL WISCONSIN

CITY           SKY/WX    TMP DP  RH WIND       PRES   REMARKS
WAUSAU         LGT SNOW  14   8  77 NW8G18    29.68R WCI   3
MOSINEE        LGT SNOW  14  10  85 NW15      29.70R WCI  -1
MARSHFIELD     LGT SNOW  12   4  70 NW25      29.72R WCI  -8
STEVENS POINT  FLURRIES  14   8  78 W10G21    29.70R WCI   1
WAUPACA        LGT SNOW  19  14  81 W8        29.69R WCI   9
WAUTOMA        LGT SNOW  16  12  84 W14G22    29.73R FOG     WCI   2
WISC RAPIDS    CLOUDY    14   6  70 NW17G35   29.75R WCI  -3
CAMP DOUGLAS   CLOUDY    14   7  73 W10       29.78R WCI   1
$$

WIZ011>013-019>022-031-037>040-048>050-251400-
NORTHEAST WISCONSIN

CITY           SKY/WX    TMP DP  RH WIND       PRES   REMARKS
ANTIGO         LGT SNOW  14  11  86 NW13      29.61R WCI   0
SHAWANO        LGT SNOW  20  16  86 CALM      29.66R
OCONTO         CLOUDY    19  15  88 W7        29.63R WCI   9
STURGEON BAY   LGT SNOW  19  16  88 NW20G28   29.61R FOG     WCI   3
GREEN BAY      LGT SNOW  20  16  84 NW14      29.66R FOG     WCI   7
MANITOWOC      LGT SNOW  19  18  93 NW18      29.63R FOG     WCI   4
APPLETON       LGT SNOW  18  12  79 W12       29.65R WCI   5
CLINTONVILLE   LGT SNOW  19  14  79 W12G18    29.66S WCI   7
OSHKOSH        LGT SNOW  17  13  84 W16       29.68R FOG     WCI   2
$$

WIZ032>034-041-042-053>061-251400-
SOUTHWEST WISCONSIN

CITY           SKY/WX    TMP DP  RH WIND       PRES   REMARKS
LA CROSSE      CLEAR     17   6  62 NW21      29.85R WCI   0
SPARTA         MOCLDY    15   9  76 W15G24    29.82S WCI   0
VIROQUA        CLOUDY    15  10  80 NW14      29.78R WCI   0
BOSCOBEL       CLOUDY    19   9  65 W12G17    29.85R WCI   7
PRAIRIE DU CHI FLURRIES  19  10  69 NW14G20   29.85S WCI   5
PLATTEVILLE    PTCLDY    17  12  80 NW3       29.80R
$$

WIZ056-057-062-063-064-067-068-251400-
SOUTH CENTRAL WISCONSIN

CITY           SKY/WX    TMP DP  RH WIND       PRES   REMARKS
REEDSBURG      CLOUDY    15   8  73 NW13G22   29.78R WCI   1
BARABOO/DELLS  CLOUDY    17  12  82 NW10      29.75R WCI   4
LONE ROCK      MOCLDY    18   8  65 NW17G26   29.81R WCI   3
MINERAL POINT  FLURRIES  21  16  79 NW3       29.76S
MADISON        LGT SNOW  18  13  80 NW8       29.75R WCI   8
MIDDLETON      CLOUDY    19  15  86 NW5       29.75S WCI  12
WATERTOWN      CLOUDY    18  15  88 NW17      29.71R FOG     WCI   2
MONROE         LGT SNOW  19  16  86 W13G21    29.75R WCI   7
JANESVILLE     LGT SNOW  19  18  93 NW16G22   29.76R WCI   5
$$

WIZ051-052-058>065-066-070>072-251400-
SOUTHEAST WISCONSIN

CITY           SKY/WX    TMP DP  RH WIND       PRES   REMARKS
MILWAUKEE      LGT SNOW  21  15  78 W15       29.69R WCI   8
WAUKESHA       LGT SNOW  18  14  86 W17G24    29.70R VSB 1   WCI   2
MILWAUKEE/TIMM LGT SNOW  19  14  79 W17       29.69R WCI   4
RACINE         CLOUDY    21  14  74 NW12G22   29.71R WCI   9
KENOSHA        LGT SNOW  21  15  78 W16G22    29.71R WCI   7
FOND DU LAC    LGT SNOW  18  12  77 NW21      29.69R WCI   1
SHEBOYGAN      LGT SNOW  19  15  84 NW17G30   29.65R VSB 1   WCI   4
WEST BEND      LGT SNOW  19  18  93 NW6       29.66R WCI  11
JUNEAU         LGT SNOW  17  13  86 W6        29.71R WCI   8
$$

LSZ147-162-251400-
LAKE SUPERIOR

STATION/POSITION TIME  TEMP    WIND        PRES    WAVE
                       AIR SEA DIR/SP/G            HT/PER
                 (UTC) (F)     (DEG/KT/KT) (MB)    (FT/S)
DEVILS ISLAND    1200   17     320/ 19/ 23 1009.4R
PORT WING        1230   16     340/ 14/ 22 1010.2R
SAXON HARBOR     1230   17     280/ 11/ 16 1007.8R
$$

LMZ867-665-643>646-251400-
LAKE MICHIGAN

STATION/POSITION TIME  TEMP    WIND        PRES    WAVE
                       AIR SEA DIR/SP/G            HT/PER
                 (UTC) (F)     (DEG/KT/KT) (MB)    (FT/S)
CHAMBERS ISLAND  1040   21     300/  2/  3 1000.0R
NORTHPORT PIER   1240   21     310/  2/  3 1001.0R
SISTER BAY       1205   20        CALM       N/A
KEWAUNEE LAKESHO 1230   20     350/ 16/ 21 1002.0R
SHEBOYGAN LAKESH 1200   21     300/  7/  8 1003.8R
PORT WASHINGTON  1230   21     290/  8/ 19 1005.8R
MILWAUKEE LAKESH 1230   21     300/ 10/ 13   N/A
KENOSHA   LAKESH 1200   22     290/ 13/ 18 1005.4
$$

TC  - TEMPERATURE IN CELSIUS
VSB - VISIBILITY IN STATUTE MILES
WCI - WIND CHILL INDEX
HX  - HEAT INDEX





USA.gov is the U.S. government's official web portal to all federal, state and local government web resources and services.